{"data":{"norad_id":64208,"epoch":"2026-09-20T06:38:16.205280Z","epoch_age_seconds":159730,"freshness":"FRESH","line1":"1 64208U 25117F   26263.27657645  .00017572  00000+0  52996-3 0  9992","line2":"2 64208  53.1580 214.6458 0001258 115.4320 244.6813 15.34400891 73290","mean_motion":15.34400891,"eccentricity":0.0001258,"inclination_deg":53.158,"raan_deg":214.6458,"arg_perigee_deg":115.432,"mean_anomaly_deg":244.6813,"bstar":0.00052996,"rev_number":7329,"period_min":93.847703585568,"perigee_km":461.84001459955,"apogee_km":463.56116933769,"semimajor_km":6840.8375919686,"source":"CELESTRAK","updated_at":"2026-09-21T09:00:35.270977Z"}}